Location: McFarlands Corners
(41.4117°N, 81.3382°W)
Time: 02:36:24
(UTC+00:00)

Transit 4A - Pass Details

Date: 19 February 2026
Orbit: 864 x 977 km, 66.8° (Epoch: 7 March)

Event Time Altitude Azimuth Distance (km) Brightness Sun altitude
Rises 09:11:38 0° 220° (SW) 3,445 - -34.8°
Reaches altitude 10° 09:14:07 10° 225° (SW) 2,520 - -34.3°
Maximum altitude 09:19:51 58° 304° (NW) 1,029 - -33.3°
Exits shadow 09:22:24 33° 8° (N) 1,458 9.0 -32.8°
Drops below altitude 10° 09:25:47 10° 23° (NNE) 2,600 10.6 -32.2°
Sets 09:28:24 0° 28° (NNE) 3,563 11.5 -31.7°
